RH
21 16 18 19 19 19 19 21 18 16 16 18 19 19 16 18 19 18 26 36 35 38 40 40 39 39 39 40 40 39 38 37 36 35 34 34 32 31 32 41 54 54 48
26 16 15 17 18 17 18 18 15 14 13 14 15 16 16 15 16 16 14 18 35 36 38 38 39 40 40 40 40 39 39 40 39 38 38 37 36 36 36 32 30 38 56
49 18 14 15 16 15 14 13 12 13 14 14 14 12 11 12 13 12 15 16 12 23 37 37 37 39 38 39 41 42 42 43 42 40 41 40 40 40 39 38 37 36 33
46 23 12 12 14 12 10 10 10 10 12 12 10 10 10 12 11 13 13 14 16 15 12 17 32 38 38 38 39 39 40 41 42 42 42 42 42 41 42 42 41 39 38
29 22 9 10 12 13 10 11 13 14 13 13 10 8 8 9 11 13 15 17 18 18 16 15 13 12 16 30 38 39 39 38 38 37 36 36 38 40 40 40 38 38 39
30 10 9 8 10 11 11 11 12 13 14 12 9 6 7 8 10 12 14 16 17 19 20 21 17 14 13 13 13 17 26 34 36 36 35 33 32 34 37 37 34 34 34
34 33 18 8 6 7 8 9 8 7 9 8 8 7 8 10 10 11 12 14 16 18 21 26 29 25 18 13 13 13 13 12 13 15 15 14 14 17 20 20 20 21 25
33 33 33 27 18 16 17 18 16 16 15 12 10 9 10 11 12 13 14 16 20 24 28 33 37 41 45 50 54 53 51 49 51 56 55 49 53 59 61 65 62 52 37
27 28 28 30 32 32 30 26 28 31 27 19 16 16 14 14 16 21 25 24 28 33 37 40 43 45 47 49 50 50 50 45 51 53 54 55 57 58 58 64 64 74 70
23 22 42 40 37 32 33 34 34 32 30 30 29 23 20 17 20 24 29 32 31 33 35 35 37 39 41 42 44 44 41 41 47 46 46 47 49 48 52 56 60 72 72
41 31 47 50 48 44 43 46 32 26 30 31 31 30 27 24 26 28 29 29 28 30 28 27 30 33 35 36 39 38 38 40 43 42 39 36 35 36 41 52 62 78 78
46 42 49 40 41 36 28 28 21 15 14 14 14 16 23 27 28 30 32 30 30 27 27 29 31 33 34 33 33 35 39 41 43 40 38 31 23 20 18 18 19 34 81
39 38 40 35 31 31 27 20 14 13 15 15 14 13 12 12 12 14 20 25 26 27 28 30 30 31 33 33 35 38 40 40 26 21 19 18 18 22 41 36 33 41 58
39 36 34 32 32 31 33 30 21 20 22 20 19 17 12 11 11 11 11 12 19 27 28 27 27 30 33 34 36 38 26 20 19 18 18 17 18 21 24 41 41 39 40
28 30 30 28 28 28 28 30 30 28 25 17 15 14 12 11 11 12 12 12 22 32 33 32 32 35 37 38 31 20 20 18 16 16 16 16 17 21 24 28 31 71 70
26 32 32 30 28 27 27 27 25 23 21 18 14 13 13 12 12 14 16 19 34 37 38 38 40 38 28 21 20 20 20 19 18 18 17 15 16 21 25 33 41 48 74
15 16 19 29 33 31 29 26 23 23 22 16 13 14 14 12 12 13 20 26 31 32 34 34 27 21 20 20 21 22 21 21 21 20 17 20 25 27 30 35 38 58 75
16 13 13 13 15 19 25 25 20 16 16 16 15 14 14 13 13 16 18 25 25 22 21 22 21 22 22 23 24 24 23 22 20 19 20 23 28 35 37 36 42 50 61
21 17 15 14 14 14 16 17 16 16 17 18 18 18 17 16 18 19 19 20 21 22 22 23 24 24 24 24 26 26 24 22 22 24 30 30 36 38 40 42 45 46 70
19 18 17 16 15 15 16 16 16 17 18 20 22 22 23 24 27 27 27 27 27 27 25 25 25 24 24 24 26 24 22 24 29 34 34 37 39 39 58 60 55 47 65
20 18 18 20 20 19 20 21 42 38 76 57 46 37 37 36 38 40 43 37 32 28 27 27 25 24 24 27 26 26 30 34 37 39 43 47 46 45 62 73 76 99 100
22 19 18 18 15 19 26 32 34 46 81 82 96 81 65 59 63 66 56 39 31 30 31 29 27 28 32 32 34 38 42 43 43 46 52 54 51 52 64 76 82 94 89
30 23 19 19 21 22 24 29 30 40 44 53 61 64 64 63 62 57 46 38 38 37 36 38 41 42 41 42 44 46 48 49 49 59 63 63 64 64 69 75 76 81 86
59 42 36 30 20 26 25 27 39 45 46 46 48 50 51 52 51 49 48 47 46 47 50 49 49 50 54 54 52 50 53 55 61 72 70 74 73 64 61 62 56 53 73
29 32 32 30 32 76 64 60 73 67 68 67 63 65 65 64 62 59 58 58 56 54 55 58 61 58 53 50 49 52 62 85 92 89 88 88 78 54 56 50 41 39 43
49 42 39 35 30 54 49 100 85 87 94 83 73 70 70 69 70 68 66 66 67 68 67 62 55 52 51 50 60 75 90 99 99 99 89 86 83 74 80 57 57 60 59
Wind_Speed
26 28 30 31 30 30 29 28 25 23 22 20 18 16 16 15 16 18 21 21 20 18 17 14 12 10 9 8 6 5 5 5 6 8 7 7 7 9 10 11 12 13 13
22 27 28 30 32 32 30 29 27 25 24 22 21 19 17 15 13 14 18 23 23 22 21 19 16 16 15 14 13 11 11 12 13 11 14 14 12 12 12 12 13 14 15
22 27 30 31 32 33 31 29 29 27 27 24 23 20 17 16 14 13 15 17 20 24 24 23 21 22 20 20 19 19 18 18 19 19 17 19 20 20 20 18 18 18 19
25 27 32 31 31 30 29 29 29 27 27 25 24 21 20 19 19 17 15 14 14 16 21 25 25 25 25 24 25 25 26 26 26 26 25 24 26 25 25 25 24 26 26
25 28 30 30 30 29 28 28 28 27 25 23 24 23 22 22 22 19 17 15 14 15 16 18 20 23 26 29 30 29 30 31 32 32 32 32 32 32 31 31 33 33 33
20 22 25 26 27 28 27 26 26 26 26 24 23 22 22 22 20 19 18 18 17 17 18 18 20 21 22 24 27 29 31 33 36 37 37 38 36 37 38 39 39 42 44
17 14 14 18 21 22 22 24 24 23 23 24 23 22 20 20 19 18 18 19 19 19 19 19 20 20 20 22 24 26 29 31 33 35 38 38 38 37 36 39 41 44 45
18 18 17 16 16 16 18 19 20 21 20 21 22 22 23 22 21 20 19 20 22 20 20 20 21 20 21 23 24 26 27 29 31 33 37 36 37 38 41 41 40 45 46
19 18 18 18 20 22 23 22 21 22 22 22 22 23 25 24 24 23 23 24 24 24 23 24 25 26 27 29 32 34 36 35 39 41 43 45 46 47 49 51 52 52 54
23 22 17 15 15 16 14 17 23 29 30 29 29 29 29 29 29 29 30 30 31 31 30 30 30 30 31 33 35 36 34 33 37 38 39 40 42 43 46 52 54 59 59
24 28 24 20 17 16 17 19 19 22 24 27 31 33 35 35 35 36 37 39 38 38 36 34 34 34 35 36 36 36 35 37 41 42 43 46 48 48 45 46 48 50 56
32 31 30 26 22 21 20 22 23 22 23 24 24 25 28 33 37 39 39 41 41 43 41 40 39 39 39 38 37 38 38 40 40 42 44 44 44 46 48 49 50 50 47
34 28 31 30 26 26 25 23 26 27 26 25 24 25 26 27 29 31 33 38 42 45 44 43 42 42 40 38 38 36 38 38 34 36 40 45 51 56 57 60 60 61 61
34 36 38 37 35 34 32 31 28 34 26 29 29 29 29 29 30 32 34 35 36 38 40 41 41 38 36 36 34 35 29 30 37 43 49 55 59 62 63 63 65 62 64
35 36 37 36 36 37 37 33 30 30 31 29 29 29 29 28 28 31 33 34 34 35 36 34 32 30 31 31 27 25 29 34 40 46 53 59 61 61 61 57 60 61 64
34 32 34 35 36 36 37 37 37 36 34 37 33 31 31 30 30 31 32 33 32 29 28 27 26 25 24 24 26 29 33 38 45 50 55 59 59 55 57 57 54 52 50
29 34 40 41 38 40 40 41 41 42 42 36 35 34 33 32 31 31 30 30 28 27 26 25 23 22 24 28 30 34 36 42 48 52 56 55 54 56 55 55 53 51 54
28 27 28 33 42 48 50 48 44 38 36 35 35 36 35 32 30 28 28 27 27 27 26 24 25 27 29 31 34 37 40 44 49 52 51 52 51 52 48 45 44 45 48
31 29 26 29 33 37 37 37 37 36 34 35 36 34 32 28 27 27 26 26 27 27 27 28 29 30 32 34 37 40 42 45 49 50 50 51 46 42 43 38 33 32 31
24 25 25 26 28 31 36 36 35 34 30 28 29 28 27 25 25 26 27 27 29 30 31 32 32 34 36 37 40 40 42 45 45 45 45 45 44 41 36 29 29 33 26
23 18 18 21 21 23 25 31 26 28 25 28 29 28 27 28 29 30 31 31 32 33 33 34 35 36 36 38 39 40 41 41 41 40 39 37 35 33 31 29 29 19 13
21 25 27 22 18 16 16 19 23 25 25 27 29 31 32 32 32 33 33 34 34 34 35 36 36 35 35 37 39 38 37 38 36 35 33 32 28 23 22 20 19 17 25
26 28 28 25 25 25 24 23 27 29 30 31 32 32 34 35 35 35 33 33 33 34 34 33 33 34 35 37 37 38 38 37 34 29 28 27 20 15 15 15 15 14 7
27 30 32 32 37 32 33 36 29 31 33 34 32 31 31 31 31 31 31 32 32 32 32 33 34 34 34 35 37 39 38 37 31 26 26 22 17 13 13 15 14 10 10
41 39 38 39 36 32 32 30 29 33 36 34 32 31 30 29 29 30 30 31 32 33 33 34 35 36 38 40 39 38 34 27 24 23 22 19 17 15 14 13 11 8 6
36 37 37 35 37 39 42 35 33 32 31 29 29 29 30 30 30 30 30 31 32 34 35 36 37 36 37 36 31 26 24 23 22 23 22 21 19 19 18 16 15 13 14
Wind_Direction
216 217 214 214 213 216 219 220 219 214 211 215 216 219 223 216 207 205 208 211 210 210 209 206 204 211 216 226 226 242 266 288 307 316 325 333 334 329 323 326 323 322 322
216 218 216 216 215 216 219 219 218 217 216 213 218 220 224 228 216 208 210 215 217 219 221 220 218 227 230 241 247 250 266 279 283 284 293 301 301 302 307 311 310 311 308
215 220 216 216 218 216 217 219 220 218 222 220 219 221 222 225 223 214 209 215 220 224 228 231 231 236 237 243 252 254 255 264 269 273 277 284 290 294 295 298 303 302 300
212 222 221 218 220 218 216 218 221 222 224 226 227 222 219 218 218 220 220 219 222 229 235 239 240 244 248 250 255 260 264 267 269 271 273 273 276 281 285 292 294 292 294
215 222 221 219 221 223 220 221 224 228 230 229 232 228 223 217 218 220 226 232 235 235 237 240 244 248 251 255 258 262 266 269 272 275 278 280 280 281 285 286 286 286 282
215 226 224 222 222 224 226 227 228 229 235 237 233 231 226 225 222 225 233 240 247 252 255 253 251 250 252 255 258 262 263 267 271 273 278 280 283 286 287 288 287 284 283
211 213 218 219 220 221 224 228 232 232 232 236 237 235 231 232 237 241 248 256 259 257 256 255 255 255 256 256 256 258 261 265 268 273 275 280 286 288 286 285 286 283 282
212 208 214 222 221 223 225 225 226 233 234 233 235 236 239 241 247 251 255 259 259 255 254 254 258 260 262 265 267 267 268 272 273 273 277 284 284 284 283 282 282 279 279
212 208 212 216 222 228 231 233 233 231 233 235 239 241 240 246 252 253 255 254 254 255 258 260 262 266 269 270 272 276 279 284 279 278 280 281 281 282 283 280 278 278 280
205 213 214 214 214 226 234 239 242 242 241 241 240 242 246 249 251 255 257 256 254 258 262 267 272 275 278 280 279 280 285 290 288 287 288 287 284 283 281 279 279 276 277
208 225 227 226 234 241 246 237 237 241 242 241 242 244 246 249 252 255 257 260 264 266 268 270 272 275 279 282 286 289 291 292 296 295 295 296 297 297 288 279 279 279 279
228 236 235 231 239 244 240 234 233 231 236 242 246 249 250 251 252 255 258 262 263 265 266 268 270 275 277 280 283 286 290 296 295 296 298 299 297 295 293 289 289 289 283
230 228 227 231 239 241 248 249 229 235 243 250 255 258 258 258 259 260 261 262 262 265 267 268 271 275 278 280 285 289 292 296 296 297 299 299 296 292 292 295 294 294 294
231 236 241 244 246 244 255 254 246 246 261 265 265 265 267 268 268 266 264 266 267 269 268 267 267 269 274 280 286 290 292 297 299 300 298 298 297 298 299 297 295 294 291
231 228 228 230 235 239 244 246 251 254 266 271 271 270 272 276 277 273 272 273 274 275 273 271 270 271 275 280 281 286 295 299 300 301 302 303 302 302 301 299 296 291 286
239 240 240 240 242 245 249 252 257 263 266 276 273 268 268 270 272 275 272 272 271 271 268 266 266 269 271 274 282 290 296 299 301 301 300 301 305 307 308 307 306 298 298
253 252 249 245 244 245 249 255 261 266 269 265 264 263 263 265 270 272 272 270 270 268 267 264 263 267 273 282 290 295 297 301 303 301 303 307 311 313 315 314 309 298 289
263 261 261 257 251 250 250 255 260 257 255 255 255 258 263 264 265 262 263 264 264 264 264 265 269 274 281 289 293 297 300 301 301 302 304 307 312 315 318 318 313 304 297
265 264 265 261 255 250 246 246 248 252 256 256 256 256 259 260 262 259 260 262 263 262 264 269 273 279 286 289 295 298 297 300 301 302 308 309 314 318 318 321 317 320 314
253 253 257 260 257 250 245 245 245 248 253 255 253 251 253 255 256 260 264 262 261 265 270 273 274 277 282 287 291 293 295 296 301 307 309 310 315 318 321 330 327 332 338
258 261 261 263 259 255 251 249 244 248 248 252 253 252 252 255 259 261 265 265 266 268 270 273 276 278 280 284 289 291 294 301 306 306 307 313 320 324 325 328 333 335 316
265 266 262 263 262 256 261 266 263 253 253 255 255 255 259 260 260 262 267 268 269 272 274 275 275 278 285 287 288 293 300 301 303 304 308 313 321 328 330 331 324 283 292
265 267 266 267 267 278 276 279 276 271 266 262 262 264 265 265 266 267 268 269 270 270 270 271 274 278 281 286 292 296 297 299 299 298 304 309 316 330 326 315 324 341 300
269 278 287 291 286 286 290 301 262 262 266 264 261 260 259 259 260 261 261 261 262 263 266 269 273 278 285 290 292 291 291 292 291 292 298 299 300 300 305 310 311 293 265
264 266 274 278 286 279 287 273 256 271 261 259 259 256 254 251 250 252 255 257 259 263 268 274 280 283 285 287 287 286 286 285 285 284 287 282 281 279 281 283 277 270 237
263 267 272 279 282 265 283 250 259 260 257 250 248 247 248 249 251 254 257 262 266 270 274 277 279 282 282 280 276 274 278 279 279 277 279 277 274 275 276 267 259 253 253